Location: Linton
(52.0943°N, 0.2848°E)
Time: 06:56:02
(UTC+00:00)

ISS - Visible Passes

Search period start: 23 February 2018 00:00
Search period end: 05 March 2018 00:00
Orbit: 402 x 407 km, 51.6° (Epoch: 23 February)

Date Brightness Start Highest point End Pass type
(mag) Time Alt. Az. Time Alt. Az. Time Alt. Az.
27 Feb -1.0 06:07:35 10° S 06:09:46 17° SE 06:11:57 10° E visible
28 Feb -0.7 05:16:56 10° SSE 05:17:44 11° SE 05:18:31 10° ESE visible
01 Mar -2.0 05:58:30 10° SSW 06:01:21 28° SSE 06:04:14 10° E visible
02 Mar -1.5 05:06:48 10° SSW 05:09:14 19° SE 05:11:39 10° E visible
03 Mar -1.1 04:16:44 12° SSE 04:17:08 13° SE 04:18:38 10° ESE visible
03 Mar -2.9 05:49:51 10° SW 05:53:00 45° SSE 05:56:10 10° E visible
04 Mar -2.4 04:59:15 21° SSW 05:00:46 32° SSE 05:03:44 10° E visible
